{"data":{"norad_id":49194,"epoch":"2026-09-20T03:15:46.300320Z","epoch_age_seconds":53500,"freshness":"FRESH","line1":"1 49194U 21083J   26263.13595255  .00000010  00000+0 -73061-5 0  9998","line2":"2 49194  87.9158 316.5889 0002010  96.0493 264.0868 13.18687421242521","mean_motion":13.18687421,"eccentricity":0.000201,"inclination_deg":87.9158,"raan_deg":316.5889,"arg_perigee_deg":96.0493,"mean_anomaly_deg":264.0868,"bstar":-7.3061e-6,"rev_number":24252,"period_min":109.19949466933,"perigee_km":1188.2165473554,"apogee_km":1191.2588329808,"semimajor_km":7567.8746901681,"source":"CELESTRAK","updated_at":"2026-09-20T09:00:44.661809Z"}}